Regional Weather Roundup
Issued by NWS

Home | Current Version | Previous Version | Graphics & Text | Print | Product List | Glossary On
Versions: 1 2 3 4 5 6 7 8 9 10 11 12 13 14 15 16 17 18 19 20 21 22 23 24 25 26 27 28 29 30 31 32 33 34 35 36 37 38 39 40 41 42 43 44 45 46 47 48 49 50
000
ASUS43 KBIS 302320
RWRND

NORTH DAKOTA REGIONAL WEATHER ROUNDUP
NATIONAL WEATHER SERVICE BISMARCK ND
500 PM CST FRI JAN 30 2015

NOTE: "FAIR" INDICATES FEW OR NO CLOUDS BELOW 12,000 FEET WITH NO
SIGNIFICANT WEATHER AND/OR OBSTRUCTIONS TO VISIBILITY.


NDZ001>003-009>011-017-310000-
NORTHWEST NORTH DAKOTA

CITY           SKY/WX    TMP DP  RH WIND       PRES   REMARKS
WILLISTON      CLEAR     40  27  59 NW6       30.18S
MINOT          CLOUDY    29  24  82 NW15      30.15S WCI  18
MINOT AFB      CLOUDY    27  27  99 NW18      30.16R WCI  14
$$

NDZ018>021-031>035-040>046-310000-
SOUTHWEST NORTH DAKOTA

CITY           SKY/WX    TMP DP  RH WIND       PRES   REMARKS
BISMARCK       CLEAR     43  27  53 N10       30.14R
DICKINSON      CLEAR     43  25  49 NW10      30.13S
GARRISON         N/A     35  28  75 NW14      30.14R
HETTINGER ARPT CLEAR     46  24  42 N7        30.14F
$$

NDZ004>008-012>016-024-026-027-054-310000-
NORTHEAST NORTH DAKOTA

CITY           SKY/WX    TMP DP  RH WIND       PRES   REMARKS
GRAND FORKS    CLEAR     33  23  66 NW6       30.10S
GRND FRKS AFB  CLEAR     33  23  67 W8        30.11S
DEVILS LAKE    PTCLDY    27  21  80 NW14      30.11R WCI  15
$$

NDZ022-023-025-028>030-036>039-047>053-310000-
SOUTHEAST NORTH DAKOTA

CITY           SKY/WX    TMP DP  RH WIND       PRES   REMARKS
FARGO          CLEAR     32  24  72 S9        30.13S
JAMESTOWN      CLEAR     35  26  69 W10       30.10S
$$




USA.gov is the U.S. government's official web portal to all federal, state and local government web resources and services.